Weather History for Port Isabel, TX

Change the Weather History Date:

Thursday, February 14, 2013

  Actual Average Record
Temperature  
Mean Temperature 60 °F -  
Max Temperature 71 °F - - ()
Min Temperature 50 °F - - ()
Degree Days  
Heating Degree Days 4    
Growing Degree Days 10 (Base 50)    
Moisture  
Dew Point 47 °F    
Average Humidity 61    
Maximum Humidity 86    
Minimum Humidity 38    
Precipitation  
Precipitation 0.00 in - - ()
Sea Level Pressure  
Sea Level Pressure 30.08 in    
Wind  
Wind Speed 7 mph (NE)    
Max Wind Speed 13 mph    
Max Gust Speed 16 mph    
Visibility 10 miles    
Events      
T = Trace of Precipitation, MM = Missing Value Source: NWS Daily Summary

Daily Weather History Graph

Daily Weather History Graph

Search for Another Location

Airport:

Trip Planner

Search our weather history database for the weather conditions in past years. The results will help you decide how hot, cold, wet, or windy it might be!

Date:

Astronomy

Feb. 14, 2013 Rise Set
Actual Time 7:05 AM CST 6:21 PM CST
Civil Twilight 6:41 AM CST 6:45 PM CST
Nautical Twilight 6:14 AM CST 7:12 PM CST
Astronomical Twilight 5:47 AM CST 7:39 PM CST
Moon 9:40 AM CST (2/14) 10:50 PM CST (2/14)
Length of Visible Light 12h 03m
Length of Day
11h 16m
Waxing Crescent, 22% of the Moon is Illuminated
Feb 14
Waxing Crescent
Feb 17
First Quarter
Feb 25
Full
Mar 4
Last Quarter
Mar 11
New

Hourly Weather History & Observations

Time (CST) Temp. Dew Point Humidity Pressure Visibility Wind Dir Wind Speed Gust Speed Precip Events Conditions
12:53 AM 55.9 °F 48.0 °F 75% 30.09 in 10.0 mi North 5.8 mph - 0.00 in   Clear
1:53 AM 55.0 °F 48.0 °F 77% 30.08 in 10.0 mi North 4.6 mph - N/A   Clear
2:53 AM 55.0 °F 46.9 °F 74% 30.06 in 10.0 mi NE 5.8 mph - N/A   Clear
3:53 AM 53.1 °F 46.9 °F 80% 30.06 in 9.0 mi North 5.8 mph - N/A   Clear
4:53 AM 51.1 °F 46.9 °F 86% 30.06 in 9.0 mi North 6.9 mph - N/A   Clear
5:53 AM 50.0 °F 46.0 °F 86% 30.07 in 10.0 mi North 8.1 mph - N/A   Clear
6:53 AM 53.1 °F 46.9 °F 80% 30.09 in 10.0 mi NNW 3.5 mph - N/A   Clear
7:53 AM 54.0 °F 48.0 °F 80% 30.11 in 9.0 mi NW 4.6 mph - N/A   Clear
8:53 AM 64.0 °F 52.0 °F 65% 30.13 in 9.0 mi North 5.8 mph - N/A   Clear
9:53 AM 66.9 °F 50.0 °F 54% 30.14 in 9.0 mi NE 11.5 mph - N/A   Clear
10:53 AM 70.0 °F 43.0 °F 38% 30.14 in 9.0 mi NNE 9.2 mph - N/A   Clear
11:53 AM 71.1 °F 46.9 °F 42% 30.14 in 10.0 mi North 9.2 mph - N/A   Clear
12:53 PM 70.0 °F 46.0 °F 42% 30.10 in 10.0 mi East 9.2 mph - N/A   Clear
1:53 PM 70.0 °F 46.0 °F 42% 30.07 in 10.0 mi East 10.4 mph - N/A   Clear
2:53 PM 70.0 °F 48.0 °F 46% 30.04 in 10.0 mi ENE 11.5 mph 16.1 mph N/A   Clear
3:53 PM 70.0 °F 46.9 °F 44% 30.05 in 9.0 mi East 11.5 mph - N/A   Clear
4:53 PM 68.0 °F 46.0 °F 45% 30.04 in 9.0 mi East 12.7 mph - N/A   Clear
5:53 PM 66.0 °F 46.0 °F 48% 30.05 in 9.0 mi East 10.4 mph - N/A   Clear
6:53 PM 63.0 °F 46.9 °F 56% 30.05 in 10.0 mi East 9.2 mph - N/A   Clear
7:53 PM 62.1 °F 46.0 °F 56% 30.05 in 10.0 mi East 8.1 mph - N/A   Clear
8:53 PM 62.1 °F 46.9 °F 58% 30.06 in 10.0 mi East 9.2 mph - N/A   Clear
9:53 PM 62.1 °F 48.0 °F 60% 30.07 in 10.0 mi East 10.4 mph - N/A   Clear
10:53 PM 63.0 °F 48.0 °F 58% 30.06 in 10.0 mi ESE 9.2 mph - N/A   Clear
11:53 PM 63.0 °F 50.0 °F 63% 30.06 in 10.0 mi ESE 9.2 mph - N/A   Clear